Estación de El Carmen

Ultimos registro cada 15 minutos 74
Estación Fecha / Hora Temperatura Humedad Lluvia Velocidad Dirección Radiación Presion
74 El Carmen 31-08-2026 18:15 16,2 63,1 0 1 152 5,6 980,1
73 El Carmen 31-08-2026 18:00 17,2 59,4 0 0,5 183 24,4 980,2
72 El Carmen 31-08-2026 17:45 19,1 50,3 0 0 250 79,4 980
71 El Carmen 31-08-2026 17:30 20 48,8 0 0 291 111,9 980
70 El Carmen 31-08-2026 17:15 19,9 48,4 0 0 275 148,1 979,9
69 El Carmen 31-08-2026 17:00 19,7 48,6 0 0,5 268 19,4 980,1
68 El Carmen 31-08-2026 16:45 19,9 50,2 0 0 275 30,6 979,9
67 El Carmen 31-08-2026 16:30 20,3 46,5 0 1 282 21,9 980,1
66 El Carmen 31-08-2026 16:15 20,2 48,6 0 2,5 295 295,6 980,2
65 El Carmen 31-08-2026 16:00 20,5 51 0 2 307 330,6 980,3
64 El Carmen 31-08-2026 15:45 19,9 48,6 0 2 295 363,1 980,3
63 El Carmen 31-08-2026 15:30 20,3 50,3 0 2 303 354,4 980,4
62 El Carmen 31-08-2026 15:15 19,9 49,7 0 2 309 81,9 980,5
61 El Carmen 31-08-2026 15:00 19,8 48,3 0 2,5 302 223,1 980,7
60 El Carmen 31-08-2026 14:45 20,6 50,3 0 2 300 519,4 980,8
59 El Carmen 31-08-2026 14:30 19,8 49,8 0 2 302 169,4 980,9
58 El Carmen 31-08-2026 14:15 19,4 51,3 0 2,5 316 529,4 981,2
57 El Carmen 31-08-2026 14:00 19,4 51,3 0 2,5 313 541,9 981,3
56 El Carmen 31-08-2026 13:45 18,9 52,8 0 3 310 546,9 981,5
55 El Carmen 31-08-2026 13:30 19 54,3 0 2 327 554,4 981,5
54 El Carmen 31-08-2026 13:15 18,6 51,6 0 2 303 559,4 981,9
53 El Carmen 31-08-2026 13:00 18,4 52,5 0 1,5 327 563,1 982,2
52 El Carmen 31-08-2026 12:45 18 55,5 0 0,5 305 610,6 982,4
51 El Carmen 31-08-2026 12:30 17,9 58 0 1 345 614,4 982,8
50 El Carmen 31-08-2026 12:15 16,3 63,8 0 1 348 339,4 983
49 El Carmen 31-08-2026 12:00 17,2 64,3 0 1 343 585,6 983,1
48 El Carmen 31-08-2026 11:45 16,2 63,5 0 1 347 583,1 983,3
47 El Carmen 31-08-2026 11:30 16 67,1 0 0,5 351 469,4 983,1
46 El Carmen 31-08-2026 11:15 15,4 68 0 0,5 354 218,1 983,3
45 El Carmen 31-08-2026 11:00 14,5 67,7 0 1 343 264,4 983,3
44 El Carmen 31-08-2026 10:45 14,7 67,5 0 0,5 337 146,9 983,2
43 El Carmen 31-08-2026 10:30 15,7 66,4 0 0,5 329 469,4 983,1
42 El Carmen 31-08-2026 10:15 15,4 67,2 0 0 65 335,6 983
41 El Carmen 31-08-2026 10:00 14,9 71,6 0 0 135 375,6 982,8
40 El Carmen 31-08-2026 09:45 13,6 79,9 0 0 143 329,4 982,9
39 El Carmen 31-08-2026 09:30 12,8 80,7 0 0 149 178,1 982,8
38 El Carmen 31-08-2026 09:15 13,1 81,6 0 0 115 338,1 982,8
37 El Carmen 31-08-2026 09:00 11,2 84,8 0 0 101 98,1 982,7
36 El Carmen 31-08-2026 08:45 10,4 86,8 0 0 100 65,6 982,5
35 El Carmen 31-08-2026 08:30 10 87,4 0 0 110 80,6 982,3
34 El Carmen 31-08-2026 08:15 9,1 89,4 0 0 122 68,1 982
33 El Carmen 31-08-2026 08:00 8,2 91,7 0 0 122 51,9 981,7
32 El Carmen 31-08-2026 07:45 6,9 92,8 0 0 122 25,6 981,4
31 El Carmen 31-08-2026 07:30 5,9 93,4 0 0 122 11,9 981,4
30 El Carmen 31-08-2026 07:15 5,8 94,1 0 0 122 3,1 981,1
29 El Carmen 31-08-2026 07:00 5,1 93,8 0 0 122 0,6 980,8
28 El Carmen 31-08-2026 06:45 4,9 92 0 0 122 0,6 980,7
27 El Carmen 31-08-2026 06:30 6,9 91,1 0 0 122 0,6 980,7
26 El Carmen 31-08-2026 06:15 6,6 94,4 0 0 122 0,6 980,6
25 El Carmen 31-08-2026 06:00 6,5 94,9 0 0 122 0,6 980,3
24 El Carmen 31-08-2026 05:45 5,6 94,2 0 0 122 0,6 980,3
23 El Carmen 31-08-2026 05:30 6 94,2 0 0 122 0,6 980,3
22 El Carmen 31-08-2026 05:15 5,7 93,4 0 0 122 0,6 980,1
21 El Carmen 31-08-2026 05:00 6,7 92,5 0 0 122 0,6 980
20 El Carmen 31-08-2026 04:45 7,2 91,4 0 0 128 0,6 980
19 El Carmen 31-08-2026 04:30 7,4 92,9 0 0 135 0,6 979,9
18 El Carmen 31-08-2026 04:15 7,1 93,5 0 0 135 0,6 979,9
17 El Carmen 31-08-2026 04:00 6,7 93 0 0 135 0,6 979,9
16 El Carmen 31-08-2026 03:45 7,1 92,3 0 0 135 0,6 980
15 El Carmen 31-08-2026 03:30 7,3 91,3 0 0 135 0,6 979,8
14 El Carmen 31-08-2026 03:15 8 91,1 0 0 135 0,6 979,7
13 El Carmen 31-08-2026 03:00 8,1 91,4 0 0 135 0,6 979,3
12 El Carmen 31-08-2026 02:45 8,1 91,4 0 0 135 0,6 979,4
11 El Carmen 31-08-2026 02:30 8,8 90,9 0 0 135 0,6 979,3
10 El Carmen 31-08-2026 02:15 9 90,5 0 0 135 0,6 979,4
9 El Carmen 31-08-2026 02:00 9,8 87,3 0 0 135 0,6 979,2
8 El Carmen 31-08-2026 01:45 10 88,3 0,4 0 135 0,6 979,3
7 El Carmen 31-08-2026 01:30 10,3 87,2 0,4 0 135 0,6 979,3
6 El Carmen 31-08-2026 01:15 10,3 85 0 0 135 0,6 979,1
5 El Carmen 31-08-2026 01:00 10,3 84,8 0 0 135 0,6 978,9
4 El Carmen 31-08-2026 00:45 10,6 83,6 0 0 135 0,6 978,9
3 El Carmen 31-08-2026 00:30 10,3 84,2 0 0 135 0,6 978,7
2 El Carmen 31-08-2026 00:15 9,9 86 0 0 135 0,6 978,6
1 El Carmen 31-08-2026 00:00 10,1 83,6 0 0 135 0,6 978,5